STARLINK-32000, 60289

Orbit data source: Space-Track

STARLINK-32000, 60289 is a payload satellite owned by SpaceX/Seattle (US) in LEO that was launched on Sun, 28 Jul 2024 UTC via an FALCON 9 launch vehicle from the Air Force Eastern Test Range (AFETR). Payloads include a variety of satellites, spacecraft, and rockets equipped with specific instruments for various scientific and technological missions. These include communications satellites like Starlink; space stations such as the ISS; scientific satellites like the Hubble; Earth observation satellites from companies like Planet Labs, Umbra, and HawkEye 360; GPS; miniature CubeSats for education and research; and military/defense satellites.

Loading next visibility...
STARLINK-32000 details
Identifier
60289, 2024-132M
Orbit
LEO
Last TLE update1 day ago
Origin
Flag of USSpaceX/Seattle (US)
ManufacturerSpaceX/Seattle
MissionOperational spacecraft
Bus & MotorSTARLINK V2M, Unknown motor
Mass730 kg wet, ~700 kg dry
Launch date (UTC)
2024-07-28 (5 months ago)
Launch vehicle
FALCON 9
Launch site
Air Force Eastern Test Range (AFETR)
Object type
Payload
Rocket body
Debris
Shape & HBRUnknown
Radar Cross SectionLarge (>1 m²)

Expand to show TLE details & history

TLE from 1 day ago
0 STARLINK-32000
1 60289U 24132M   24355.19049912  .00022916  00000-0  78290-3 0  9990
2 60289  53.1605 317.2238 0001444  93.3010 266.8156 15.30222362 23502
Epoch: 2024-12-20T04:34Z
Definitive object data (Epoch: 2024-12-20T04:34:19.123Z)
Latitude-0.00005°
Longitude159.38452°
Altitude476.103 km
Speed7.629 km/s
True Right ascension21h 08m 53s
True Declination0° 00' 00"
Sunlit
Object was in daylight at TLE epoch
Visualization TLE readout
Latitude-27.2355°
Longitude130.49142°
Altitude483.712 km
Speed7.623 km/s
Apparent Right ascension21h 27m 45s
Apparent Declination-39° 48' 38"
Sunlit
Object is in daylight
Visualization observer readout
Local Sidereal Time12:22:14
Azimuth104.214° ESE
Elevation-56.862°
Doppler factor1
Orbital elements
Apogee altitude476.394 km
Perigee altitude474.415 km
Semi-major axis6,853.542 km
Eccentricity0.0001444
Inclination53.1605°
RAAN317.2238°
Arg. of periapsis93.301°
True anomaly266.79908°
Mean anomaly266.8156°
Eccentric anomaly266.80734°
Mean motion3.82534 °/min
BSTAR0.0007829
Orbital period94.11 mins
Loading maneuver chart data...
Loading historical data...
Loading historical data...
Loading historical data...
Loading historical data...
Loading historical data...
Loading historical data...
Loading historical data...

STARLINK-32000 Visibility forecast

Observer location: undefined°, undefined

Span
Click to sort rows by Start time (UTC) header in descending order
Start Az.
Max El. time (UTC)
Max El. Az.
Max El.
End time (UTC)
End Az.
4 mins2024-12-21 23:03:17.300Z172.765° S2024-12-21 23:05:17.300Z131.21° SE20.996°2024-12-21 23:07:17.300Z88.369° E
5 mins2024-12-22 00:41:17.300Z268.267° W2024-12-22 00:43:17.300Z337.629° N33.675°2024-12-22 00:46:17.300Z37.423° NE
4 mins2024-12-22 05:38:17.300Z348.134° N2024-12-22 05:40:17.300Z37.84° NE22.808°2024-12-22 05:42:17.300Z77.859° E
5 mins2024-12-22 07:16:17.300Z285.5° WNW2024-12-22 07:18:17.300Z207.269° SW35.749°2024-12-22 07:21:17.300Z151.425° SSE
|